This demonstration page uses our WeatherBlox Daily Observations layout. Learn more.

Left ArrowRight Arrow

38.80484, -77.04692

Hourly Observations for September 17, 2020

Temp ( °F °C ) Dew Point ( °F °C ) Humidity (%) Winds ( mph kmh ) Pressure ( in mb ) Visibility ( mi km ) Precip ( " mm )
12:52 am 00:52 Cloudy 66 18.9 62 16.7 87 87 SW 3 6 30.11 1020 10 16 N/A
1:41 am 01:41 Cloudy 67 19.4 61 16.1 81 81 N N/A 30.10 1019 10 16 N/A
1:52 am 01:52 Cloudy 67 19.4 60 15.6 79 79 N N/A 30.09 1019 10 16 N/A
2:52 am 02:52 Cloudy 67 19.4 60 15.6 79 79 N N/A 30.07 1018 10 16 N/A
3:52 am 03:52 Cloudy 67 19.4 60 15.6 79 79 NNW 3 6 30.06 1018 10 16 N/A
4:52 am 04:52 Cloudy 68 20 58 14.4 70 70 N N/A 30.05 1018 10 16 N/A
5:52 am 05:52 Cloudy 68 20 58 14.4 70 70 N N/A 30.05 1018 10 16 N/A
6:45 am 06:45 Cloudy 68 20 58 14.4 70 70 N N/A 30.05 1018 10 16 N/A
6:52 am 06:52 Cloudy 68 20 58 14.4 70 70 N N/A 30.05 1018 10 16 N/A
7:52 am 07:52 Cloudy 68 20 59 15 73 73 N N/A 30.06 1018 10 16 N/A
8:44 am 08:44 Cloudy 69 20.6 59 15 70 70 N N/A 30.06 1018 10 16 N/A
8:52 am 08:52 Cloudy 69 20.6 60 15.6 73 73 N N/A 30.06 1018 10 16 N/A
9:12 am 09:12 Cloudy 70 21.1 60 15.6 71 71 NNE 3 6 30.06 1018 10 16 N/A
9:52 am 09:52 Cloudy 70 21.1 60 15.6 71 71 N N/A 30.06 1018 10 16 N/A
10:52 am 10:52 Cloudy 72 22.2 61 16.1 68 68 N N/A 30.05 1018 10 16 N/A
11:52 am 11:52 Cloudy 72 22.2 61 16.1 68 68 N N/A 30.05 1018 10 16 N/A
12:52 pm 12:52 Cloudy 73 22.8 62 16.7 69 69 N N/A 30.04 1017 10 16 N/A
1:52 pm 13:52 Cloudy 73 22.8 64 17.8 74 74 S 6 9 30.02 1017 10 16 N/A
2:52 pm 14:52 Cloudy 72 22.2 66 18.9 82 82 S 9 15 30.00 1016 10 16 N/A
3:52 pm 15:52 Mostly Cloudy with Light Rain 72 22.2 66 18.9 82 82 SSE 5 7 29.98 1015 10 16 0.00 0.00
4:52 pm 16:52 Cloudy with Light Rain 71 21.7 66 18.9 84 84 SSE 5 7 29.97 1015 9 14 0.01 0.25
5:52 pm 17:52 Cloudy with Light Rain 70 21.1 67 19.4 90 90 N N/A 29.96 1015 6 10 0.08 2.03
6:52 pm 18:52 Cloudy with Light Rain 69 20.6 67 19.4 93 93 N N/A 29.96 1014 5 8 0.07 1.78
7:52 pm 19:52 Cloudy with Light Rain 70 21.1 67 19.4 90 90 ESE 3 6 29.96 1015 7 11 0.07 1.78
8:14 pm 20:14 Cloudy with Light Rain 69 20.6 67 19.4 93 93 N N/A 29.96 1015 8 13 0.02 0.51
8:52 pm 20:52 Cloudy with Light Rain 69 20.6 67 19.4 93 93 N N/A 29.96 1015 7 11 0.06 1.52
9:08 pm 21:08 Cloudy with Light Rain 69 20.6 67 19.4 93 93 N N/A 29.97 1015 7 11 0.02 0.51
9:29 pm 21:29 Cloudy with Light Rain 69 20.6 67 19.4 93 93 N N/A 29.97 1015 7 11 0.04 1.02
9:41 pm 21:41 Cloudy with Light Rain 70 21.1 67 19.4 90 90 N N/A 29.97 1015 9 14 0.04 1.02
9:52 pm 21:52 Cloudy with Light Rain 70 21.1 67 19.4 90 90 N N/A 29.96 1015 8 13 0.05 1.27
9:59 pm 21:59 Cloudy with Light Rain 70 21.1 67 19.4 90 90 N N/A 29.96 1015 8 13 0.01 0.25
10:33 pm 22:33 Cloudy with Light Rain 70 21.1 67 19.4 90 90 E 3 6 29.95 1014 10 16 0.03 0.76
10:52 pm 22:52 Cloudy with Light Rain 69 20.6 67 19.4 93 93 ESE 6 9 29.94 1014 10 16 0.03 0.76
11:04 pm 23:04 Cloudy with Light Rain 69 20.6 67 19.4 93 93 N N/A 29.95 1014 10 16 0.00 0.00
11:52 pm 23:52 Cloudy with Light Rain 69 20.6 66 18.9 90 90 NE 8 13 29.94 1014 9 14 0.01 0.25

Powered by AerisWeather